01.05.2024;04:00;24
01.05.2024;03:00;21
01.05.2024;02:00;21
01.05.2024;01:00;40
01.05.2024;00:00;44
30.04.2024;23:00;36
30.04.2024;22:00;39
30.04.2024;21:00;28
30.04.2024;20:00;27
30.04.2024;19:00;21
30.04.2024;18:00;54
30.04.2024;17:00;36
30.04.2024;16:00;14
30.04.2024;15:00;24
30.04.2024;14:00;30
30.04.2024;13:00;17
30.04.2024;12:00;24
30.04.2024;11:00;25
30.04.2024;10:00;42
30.04.2024;09:00;55
30.04.2024;08:00;41
30.04.2024;07:00;37
30.04.2024;06:00;22
30.04.2024;05:00;16
30.04.2024;04:00;13
30.04.2024;03:00;15
30.04.2024;02:00;17
30.04.2024;01:00;21
30.04.2024;00:00;28
29.04.2024;23:00;29
29.04.2024;22:00;19
29.04.2024;21:00;25
29.04.2024;20:00;20
29.04.2024;19:00;11
29.04.2024;18:00;7
29.04.2024;17:00;7
29.04.2024;16:00;14
29.04.2024;15:00;29
29.04.2024;14:00;23
29.04.2024;13:00;20
29.04.2024;12:00;27
29.04.2024;11:00;31
29.04.2024;10:00;46
29.04.2024;09:00;48
29.04.2024;08:00;46
29.04.2024;07:00;33
29.04.2024;06:00;22
29.04.2024;05:00;17
